Regional Weather Roundup
Issued by NWS

Home | Current Version | Previous Version | Graphics & Text | Print | Product List | Glossary On
Versions: 1 2 3 4 5 6 7 8 9 10 11 12 13 14 15 16 17 18 19 20 21 22 23 24 25 26 27 28
000
ASUS45 KCYS 201210
RWRWY

WYOMING REGIONAL WEATHER ROUNDUP
NATIONAL WEATHER SERVICE CHEYENNE WY
500 AM MST MON FEB 20 2017

NOTE:  "FAIR" INDICATES FEW OR NO CLOUDS BELOW 12,000 FEET
WITH NO SIGNIFICANT WEATHER AND/OR OBSTRUCTIONS TO VISIBILITY.

WYZ001-201300-
YELLOWSTONE NATIONAL PARK

CITY           SKY/WX    TMP DP  RH WIND       PRES   REMARKS
LK YELLOWSTONE   N/A     23  22  96 VRB3      29.91R
6HR MIN TEMP:  22; 6HR MAX TEMP:  24;

W YELLOWSTONE  NOT AVBL

$$
WYZ002>013-054>058-071-098>099-201300-
NORTHERN WYOMING

CITY           SKY/WX    TMP DP  RH WIND       PRES   REMARKS
JACKSON        CLOUDY    30  27  86 SW9       29.93S WCI  22
CODY           FAIR      37  17  44 W6        29.85S WCI  32
GREYBULL       FAIR      30  25  81 SE6       29.88R WCI  24
6HR MIN TEMP:  30; 6HR MAX TEMP:  42;

WORLAND        FAIR      27  26  96 SW6       29.89R WCI  20
6HR MIN TEMP:  25; 6HR MAX TEMP:  37;

SHERIDAN       FAIR      35  22  58 SW13      29.81R WCI  26
6HR MIN TEMP:  30; 6HR MAX TEMP:  44;

BUFFALO        FAIR      37  28  70 S5        29.83R WCI  33
6HR MIN TEMP:  34; 6HR MAX TEMP:  40;

GILLETTE       FAIR      35  33  92 W9        29.82R WCI  28
6HR MIN TEMP:  34; 6HR MAX TEMP:  43; 6HR PCP:  0.06;

HULETT         FAIR      39  36  87 SW7       29.81R WCI  34
NEWCASTLE      PTSUNNY   36  36 100 NW7       29.82R WCI  30

$$
WYZ014>020-022>026-101>103-201300-
CENTRAL WYOMING

CITY           SKY/WX    TMP DP  RH WIND       PRES   REMARKS
BIG PINEY      CLOUDY    11   7  84 CALM      30.00R
6HR MIN TEMP:   8; 6HR MAX TEMP:  18;

PINEDALE       CLOUDY    12  12 100 N6        30.00S WCI   3
DUBOIS         CLOUDY    32  19  59 W16G23    29.89F WCI  21
LANDER         FAIR      31  16  54 SW5       29.90R WCI  26
6HR MIN TEMP:  28; 6HR MAX TEMP:  40;

RIVERTON       FAIR      30  18  60 S7        29.91R WCI  23
6HR MIN TEMP:  26; 6HR MAX TEMP:  33;

CASPER         FAIR      31  17  56 CALM      29.91R
6HR MIN TEMP:  27; 6HR MAX TEMP:  40;

DOUGLAS        FAIR      33  18  53 NW17      29.87R WCI  22
6HR MIN TEMP:  33; 6HR MAX TEMP:  46;


$$
WYZ021-027>030-104>119-201300-
SOUTHERN WYOMING

CITY           SKY/WX    TMP DP  RH WIND       PRES   REMARKS
EVANSTON       FAIR      27  21  78 S7        29.98S WCI  19
6HR MIN TEMP:  26; 6HR MAX TEMP:  31;

FORT BRIDGER   FAIR      29  20  67 SW8       30.01S WCI  21
ROCK SPRINGS   FAIR      30  24  78 SW13      29.99R WCI  20
6HR MIN TEMP:  27; 6HR MAX TEMP:  31;

DIXON            N/A     19  17  93 CALM      30.08R
RAWLINS        FAIR      30  24  78 W17       29.97R WCI  18
6HR MIN TEMP:  29; 6HR MAX TEMP:  32;

SARATOGA       FAIR      27  25  93 SW5       30.01R WCI  21
LARAMIE        FAIR      29  17  61 W16       29.93R WCI  17
6HR MIN TEMP:  25; 6HR MAX TEMP:  34;

CHEYENNE       FAIR      38  16  40 N12G31    29.86R WCI  30
6HR MIN TEMP:  37; 6HR MAX TEMP:  42;

TORRINGTON     FAIR      36  19  50 W14       29.83R WCI  27
6HR MIN TEMP:  36; 6HR MAX TEMP:  47;

PINE BLUFFS    FAIR      36  18  48 W21G28    29.86R WCI  24

$$




USA.gov is the U.S. government's official web portal to all federal, state and local government web resources and services.